EW8016 Weather Reports


Display with metric or nautical units.
time (UTC)temp
F
wind
direction
speed
MPH
gust
MPH
rain 1hr
in
rain 24hr
in
rain mn
in
humidity
%
barometer
mb
20220123065003 41 0 0.0 0.0 0.00 0.02 0.01 97 1035.3
20220123064507 41 0 0.0 0.0 0.00 0.02 0.01 97 1035.2
20220123064005 41 0 0.0 0.0 0.00 0.02 0.01 97 1035.2
20220123063504 41 0 0.0 0.0 0.00 0.02 0.01 97 1035.1
20220123063005 41 0 0.0 0.0 0.00 0.02 0.01 97 1035.2
20220123062503 41 0 0.0 0.0 0.00 0.02 0.01 97 1035.1
20220123062006 41 0 0.0 0.0 0.00 0.02 0.01 97 1035.2
20220123061503 41 0 0.0 0.0 0.00 0.02 0.01 97 1035.2
20220123061004 41 247 0.0 0.0 0.00 0.02 0.01 97 1035.1
20220123060507 41 247 0.0 2.0 0.00 0.02 0.01 97 1035.2
20220123060005 41 247 0.0 2.0 0.00 0.02 0.01 97 1035.1
20220123055505 41 247 0.0 1.0 0.00 0.02 0.01 97 1035.0
20220123054506 41 247 0.0 2.0 0.00 0.02 0.01 97 1035.1
20220123054006 41 247 0.0 2.0 0.00 0.02 0.01 97 1034.9
20220123053505 41 0 0.0 0.0 0.00 0.02 0.01 97 1034.9
20220123053005 41 0 0.0 0.0 0.00 0.02 0.01 97 1034.9
20220123052503 41 0 0.0 0.0 0.00 0.02 0.01 97 1034.9
20220123052003 41 247 0.0 1.0 0.00 0.02 0.01 97 1035.0
20220123051507 41 247 0.0 2.0 0.00 0.02 0.01 97 1035.0
20220123051005 41 247 0.0 2.0 0.00 0.02 0.01 97 1035.0
20220123050505 41 0 0.0 0.0 0.00 0.02 0.01 97 1034.9
20220123050003 41 0 0.0 0.0 0.00 0.02 0.01 97 1034.9
20220123045503 41 0 0.0 0.0 0.00 0.02 0.01 97 1034.9
20220123045003 41 0 0.0 0.0 0.00 0.02 0.01 97 1034.8
20220123044503 41 0 0.0 0.0 0.00 0.02 0.01 97 1034.9
20220123044005 41 288 0.0 2.0 0.00 0.02 0.01 97 1034.9
20220123043503 41 288 0.0 2.0 0.00 0.02 0.01 97 1034.8
20220123043006 41 288 0.0 0.0 0.00 0.02 0.01 97 1034.9
20220123042503 41 288 0.0 2.0 0.00 0.02 0.01 97 1034.9
20220123042003 41 288 0.0 2.0 0.00 0.02 0.01 97 1035.0
20220123041503 41 0 0.0 0.0 0.00 0.02 0.01 97 1034.9
20220123041003 41 0 0.0 0.0 0.00 0.02 0.01 97 1034.9
20220123040505 41 288 0.0 1.0 0.00 0.02 0.01 97 1034.9
20220123040005 41 288 0.0 2.0 0.00 0.02 0.01 97 1034.8
20220123035506 41 288 1.0 2.0 0.00 0.02 0.01 97 1034.9
20220123035005 41 288 0.0 3.0 0.00 0.02 0.01 97 1034.7
20220123034503 41 288 0.0 3.0 0.00 0.02 0.01 97 1034.8
20220123034003 41 0 0.0 0.0 0.00 0.02 0.01 97 1034.8
20220123033503 41 0 0.0 0.0 0.00 0.02 0.01 97 1034.8
20220123033005 41 0 0.0 0.0 0.00 0.02 0.01 97 1034.7
20220123032503 41 0 0.0 0.0 0.00 0.02 0.01 97 1034.9
20220123032008 41 0 0.0 0.0 0.00 0.02 0.01 97 1034.8
20220123031505 41 0 0.0 0.0 0.00 0.02 0.01 97 1034.8
20220123031003 41 0 0.0 0.0 0.00 0.02 0.01 97 1034.6
20220123030506 41 0 0.0 0.0 0.00 0.02 0.01 97 1034.8
20220123030005 41 283 0.0 3.0 0.00 0.02 0.01 97 1034.7
20220123025505 41 283 1.0 3.0 0.00 0.02 0.01 97 1034.5
20220123025007 41 289 1.0 3.0 0.00 0.02 0.01 97 1034.5
20220123024503 41 289 2.0 3.0 0.00 0.02 0.01 97 1034.5
20220123024005 41 285 2.0 4.0 0.00 0.02 0.01 97 1034.4
20220123023505 41 286 2.0 4.0 0.00 0.02 0.01 97 1034.4
20220123023003 41 284 1.0 4.0 0.00 0.02 0.01 97 1034.6
20220123022504 41 279 0.0 4.0 0.00 0.02 0.01 97 1034.6
20220123022003 41 0 0.0 0.0 0.00 0.02 0.01 97 1034.6
20220123021503 41 0 0.0 0.0 0.01 0.02 0.01 97 1034.6
20220123021005 41 0 0.0 0.0 0.01 0.02 0.01 97 1034.6
20220123020505 41 230 1.0 3.0 0.01 0.02 0.01 97 1034.6
20220123020005 41 239 1.0 3.0 0.01 0.02 0.01 97 1034.6
20220123015506 41 254 1.0 3.0 0.01 0.02 0.01 97 1034.7
20220123015005 42 260 0.0 3.0 0.01 0.02 0.01 97 1034.7
20220123014503 42 260 0.0 3.0 0.01 0.02 0.01 97 1034.6
20220123014005 42 240 0.0 1.0 0.01 0.02 0.01 97 1034.5
20220123013506 42 277 1.0 3.0 0.01 0.02 0.01 97 1034.6
20220123013008 42 286 1.0 4.0 0.01 0.02 0.01 97 1034.6
20220123012503 42 263 2.0 7.0 0.01 0.02 0.01 97 1034.6
20220123012005 42 250 2.0 7.0 0.01 0.02 0.01 97 1034.4
20220123011505 42 255 1.0 4.0 0.00 0.02 0.01 97 1034.4
20220123010503 42 0 0.0 0.0 0.00 0.02 0.00 97 1034.8
20220123010005 42 0 0.0 0.0 0.00 0.02 0.00 97 1034.8
20220123005504 42 0 0.0 0.0 0.00 0.02 0.00 97 1034.8
20220123005003 42 0 0.0 0.0 0.00 0.02 0.00 97 1034.8
20220123004507 42 0 0.0 0.0 0.00 0.02 0.00 97 1034.7
20220123004003 42 0 0.0 0.0 0.00 0.02 0.00 97 1034.7
20220123003506 42 0 0.0 0.0 0.00 0.02 0.00 97 1034.7
20220123003003 42 0 0.0 0.0 0.00 0.02 0.00 97 1034.8
20220123002503 42 0 0.0 0.0 0.00 0.02 0.00 96 1034.9
20220123002008 42 0 0.0 0.0 0.00 0.02 0.00 96 1034.8
20220123001503 42 232 0.0 3.0 0.00 0.02 0.00 96 1034.6
20220123001004 42 236 1.0 3.0 0.00 0.02 0.00 96 1034.5
20220123000503 42 237 1.0 3.0 0.00 0.02 0.00 96 1034.5
20220123000003 42 240 1.0 3.0 0.00 0.02 0.00 96 1034.5
20220122235506 42 253 1.0 3.0 0.00 0.02 0.00 96 1034.6
20220122235003 42 246 1.0 3.0 0.00 0.02 0.00 96 1034.6
20220122234503 42 242 1.0 3.0 0.00 0.02 0.00 96 1034.8
20220122234003 42 261 0.0 3.0 0.00 0.02 0.00 96 1034.7
20220122233508 42 0 0.0 0.0 0.00 0.02 0.00 96 1034.6
20220122233003 42 265 0.0 0.0 0.00 0.02 0.00 96 1034.5
20220122232506 42 265 1.0 3.0 0.00 0.02 0.00 96 1034.6
20220122232003 42 265 1.0 3.0 0.00 0.02 0.00 96 1034.6
20220122231507 42 269 1.0 3.0 0.00 0.02 0.00 96 1034.6
20220122231005 42 274 1.0 3.0 0.00 0.02 0.00 96 1034.7
20220122230505 42 279 2.0 3.0 0.00 0.02 0.00 96 1034.6
20220122230012 42 282 2.0 3.0 0.00 0.02 0.00 96 1034.6
20220122225505 42 283 2.0 4.0 0.00 0.02 0.02 96 1034.6
20220122225005 42 286 2.0 4.0 0.00 0.02 0.02 96 1034.6
20220122224505 42 287 1.0 4.0 0.00 0.02 0.02 96 1034.5
20220122224003 42 291 0.0 3.0 0.00 0.02 0.02 96 1034.5
20220122223503 42 0 0.0 0.0 0.00 0.02 0.02 96 1034.6
20220122223006 42 259 0.0 3.0 0.00 0.02 0.02 96 1034.7
20220122222508 42 259 0.0 3.0 0.00 0.02 0.02 96 1034.5
20220122222003 42 0 0.0 0.0 0.00 0.02 0.02 96 1034.5
20220122221506 42 0 0.0 0.0 0.00 0.02 0.02 96 1034.4
20220122221003 42 243 0.0 2.0 0.00 0.02 0.02 96 1034.4
20220122220505 42 243 1.0 2.0 0.00 0.02 0.02 96 1034.3
20220122220004 42 243 1.0 2.0 0.00 0.02 0.02 96 1034.3
20220122215505 42 246 1.0 3.0 0.00 0.02 0.02 96 1034.2
20220122215005 42 251 1.0 4.0 0.00 0.02 0.02 96 1034.3
20220122214503 42 261 1.0 3.0 0.00 0.02 0.02 96 1034.2
20220122214004 42 283 1.0 4.0 0.00 0.02 0.02 96 1034.2
20220122213504 42 281 1.0 4.0 0.00 0.02 0.02 96 1034.3
20220122213005 42 283 0.0 3.0 0.00 0.02 0.02 96 1034.2
20220122212507 42 279 0.0 3.0 0.00 0.02 0.02 96 1034.2
20220122212005 42 262 0.0 2.0 0.00 0.02 0.02 96 1034.2
20220122211504 42 0 0.0 0.0 0.00 0.02 0.02 96 1034.3
20220122211006 42 0 0.0 0.0 0.00 0.02 0.02 96 1034.2
20220122210505 42 0 0.0 0.0 0.00 0.02 0.02 96 1034.2
20220122210005 42 0 0.0 0.0 0.00 0.02 0.02 96 1034.2
20220122205503 42 304 0.0 1.0 0.00 0.02 0.02 96 1034.3
20220122205003 42 309 1.0 4.0 0.00 0.02 0.02 96 1034.2
20220122204503 42 309 1.0 4.0 0.00 0.02 0.02 96 1034.3
20220122204005 42 320 1.0 4.0 0.00 0.02 0.02 96 1034.3
20220122203505 42 327 1.0 4.0 0.00 0.02 0.02 96 1034.2
20220122203003 42 324 1.0 5.0 0.00 0.02 0.02 96 1034.2
20220122202505 42 315 2.0 5.0 0.00 0.02 0.02 96 1034.2
20220122202003 42 311 2.0 5.0 0.00 0.02 0.02 95 1034.2
20220122201505 42 308 3.0 7.0 0.00 0.02 0.02 95 1034.3
20220122201006 42 301 3.0 7.0 0.00 0.02 0.02 95 1034.2
20220122200503 42 290 2.0 6.0 0.00 0.02 0.02 95 1034.2
20220122200003 43 284 2.0 6.0 0.00 0.02 0.02 95 1034.2
20220122195503 42 286 3.0 6.0 0.00 0.02 0.02 95 1034.1
20220122195007 42 287 2.0 6.0 0.00 0.02 0.02 95 1034.2
20220122194505 42 278 2.0 4.0 0.00 0.02 0.02 94 1034.1
20220122194005 42 281 2.0 4.0 0.00 0.02 0.02 94 1034.1
20220122193504 42 283 2.0 4.0 0.00 0.02 0.02 94 1034.0
20220122193008 43 281 2.0 4.0 0.00 0.02 0.02 94 1034.1
20220122192505 43 284 2.0 4.0 0.00 0.02 0.02 94 1034.0
20220122192003 43 289 1.0 3.0 0.00 0.02 0.02 94 1034.0
20220122191503 43 301 1.0 3.0 0.00 0.02 0.02 94 1034.1
20220122191003 43 309 1.0 4.0 0.00 0.02 0.02 94 1034.2
20220122190505 43 310 2.0 4.0 0.00 0.02 0.02 94 1034.2
20220122190003 43 315 2.0 4.0 0.00 0.02 0.02 94 1034.2
20220122185503 43 311 2.0 5.0 0.00 0.02 0.02 94 1034.2
20220122185004 43 309 3.0 7.0 0.00 0.02 0.02 94 1034.2
20220122184504 43 309 4.0 8.0 0.00 0.02 0.02 94 1034.0
20220122184005 43 311 4.0 9.0 0.00 0.02 0.02 94 1034.1
20220122183505 43 314 3.0 9.0 0.00 0.02 0.02 94 1034.0
20220122183005 43 317 2.0 4.0 0.00 0.02 0.02 94 1033.9
20220122182505 43 302 3.0 6.0 0.00 0.02 0.02 94 1034.0
20220122182005 43 288 3.0 9.0 0.00 0.02 0.02 94 1033.8
20220122181503 43 287 3.0 7.0 0.00 0.02 0.02 94 1033.8
20220122181003 43 287 3.0 7.0 0.00 0.02 0.02 94 1033.9
20220122180505 43 282 3.0 7.0 0.00 0.02 0.02 94 1033.9
20220122180004 43 276 2.0 6.0 0.00 0.02 0.02 94 1033.9
20220122175507 43 277 1.0 3.0 0.00 0.02 0.02 94 1033.8
20220122175005 43 273 1.0 4.0 0.00 0.02 0.02 94 1033.8
20220122174503 43 278 2.0 4.0 0.00 0.02 0.02 94 1033.7
20220122174005 44 287 3.0 8.0 0.00 0.02 0.02 94 1033.8
20220122173507 44 292 3.0 8.0 0.00 0.02 0.02 94 1033.9
20220122173003 44 290 3.0 7.0 0.00 0.02 0.02 94 1033.9
20220122172503 44 286 3.0 7.0 0.00 0.02 0.02 93 1033.9
20220122172004 44 289 3.0 7.0 0.00 0.02 0.02 93 1033.9
20220122171506 44 289 4.0 9.0 0.00 0.02 0.02 93 1033.9
20220122171005 44 286 4.0 9.0 0.00 0.02 0.02 93 1033.9
20220122170507 44 286 3.0 7.0 0.00 0.02 0.02 93 1033.9
20220122170005 44 288 3.0 7.0 0.00 0.02 0.02 92 1034.0
20220122165503 44 285 3.0 7.0 0.00 0.02 0.02 92 1033.9
20220122165003 44 285 2.0 7.0 0.00 0.02 0.02 92 1033.9
20220122164503 44 286 2.0 7.0 0.00 0.02 0.02 92 1033.8
20220122164005 44 290 2.0 6.0 0.00 0.02 0.02 92 1033.7
20220122163503 44 303 2.0 6.0 0.00 0.02 0.02 92 1033.8
20220122163003 44 301 2.0 5.0 0.00 0.02 0.02 92 1033.8
20220122162506 44 299 3.0 6.0 0.00 0.02 0.02 92 1033.6
20220122162003 44 307 3.0 7.0 0.00 0.02 0.02 92 1033.6
20220122161505 44 307 3.0 7.0 0.00 0.02 0.02 92 1033.5
20220122161005 44 308 3.0 7.0 0.00 0.02 0.02 92 1033.5
20220122160505 44 306 3.0 6.0 0.00 0.02 0.02 92 1033.6
20220122160005 44 296 3.0 9.0 0.00 0.02 0.02 92 1033.5
20220122155505 44 293 3.0 9.0 0.00 0.02 0.02 92 1033.5
20220122155003 44 291 3.0 7.0 0.00 0.02 0.02 92 1033.4
20220122154503 44 296 3.0 7.0 0.00 0.02 0.02 92 1033.7
20220122154005 44 297 3.0 6.0 0.00 0.02 0.02 92 1033.6
20220122153505 44 293 2.0 6.0 0.00 0.02 0.02 92 1033.5
20220122153003 44 294 2.0 7.0 0.00 0.02 0.02 92 1033.4
20220122152507 44 291 2.0 7.0 0.00 0.02 0.02 92 1033.4
20220122152004 44 293 2.0 6.0 0.00 0.02 0.02 92 1033.4
20220122151503 44 300 2.0 6.0 0.00 0.02 0.02 92 1033.3
20220122151005 44 300 2.0 8.0 0.00 0.02 0.02 92 1033.3
20220122150503 44 302 4.0 8.0 0.00 0.02 0.02 92 1033.3
20220122150003 44 306 4.0 9.0 0.00 0.02 0.02 92 1033.4
20220122145505 44 306 4.0 9.0 0.00 0.02 0.02 92 1033.3
20220122145005 44 304 3.0 8.0 0.00 0.02 0.02 92 1033.3
20220122144503 45 304 3.0 8.0 0.00 0.02 0.02 92 1033.4
20220122144005 45 300 3.0 8.0 0.00 0.02 0.02 92 1033.4
20220122143505 44 294 4.0 8.0 0.01 0.02 0.02 92 1033.4
20220122143004 44 291 4.0 10.0 0.01 0.02 0.02 92 1033.4
20220122142504 44 292 4.0 10.0 0.01 0.02 0.02 93 1033.4
20220122142004 44 296 3.0 8.0 0.01 0.02 0.02 93 1033.4
20220122141504 44 296 4.0 7.0 0.01 0.02 0.02 93 1033.3
20220122141003 44 295 4.0 8.0 0.01 0.02 0.02 93 1033.4
20220122140505 44 294 4.0 9.0 0.01 0.02 0.02 94 1033.3
20220122140005 44 290 4.0 9.0 0.01 0.02 0.02 94 1033.4
20220122135503 44 292 3.0 7.0 0.01 0.02 0.02 94 1033.4
20220122135003 44 292 3.0 8.0 0.01 0.02 0.02 94 1033.4
20220122134503 44 288 4.0 8.0 0.01 0.02 0.02 94 1033.4
20220122134006 44 287 4.0 8.0 0.01 0.02 0.02 95 1033.5
20220122133503 44 286 4.0 7.0 0.00 0.02 0.01 95 1033.5
20220122133003 44 290 4.0 7.0 0.00 0.02 0.01 95 1033.5
20220122132503 44 294 4.0 7.0 0.00 0.02 0.01 96 1033.6
20220122132005 44 287 3.0 8.0 0.00 0.02 0.01 96 1033.6
20220122131504 44 278 3.0 8.0 0.00 0.02 0.01 96 1033.6
20220122131005 44 283 3.0 7.0 0.00 0.02 0.01 96 1033.6
20220122130503 44 285 2.0 8.0 0.00 0.02 0.01 96 1033.5
20220122130003 44 274 2.0 8.0 0.00 0.02 0.01 96 1033.5
20220122125505 44 268 3.0 8.0 0.00 0.02 0.01 96 1033.5
20220122125003 44 274 4.0 8.0 0.00 0.02 0.01 96 1033.4
20220122124505 44 276 3.0 8.0 0.00 0.02 0.01 96 1033.4
20220122124003 44 281 3.0 8.0 0.00 0.02 0.01 96 1033.5
20220122123505 44 276 3.0 8.0 0.00 0.02 0.01 96 1033.5
20220122123006 44 273 3.0 8.0 0.00 0.02 0.01 96 1033.5
20220122122505 44 280 3.0 6.0 0.00 0.02 0.01 97 1033.4
20220122122005 44 276 3.0 7.0 0.00 0.02 0.01 97 1033.4
20220122121505 44 264 3.0 8.0 0.00 0.02 0.01 97 1033.4
20220122121008 44 261 3.0 8.0 0.00 0.02 0.01 97 1033.4
20220122120503 44 272 3.0 7.0 0.00 0.02 0.01 97 1033.4
20220122120003 44 277 3.0 7.0 0.00 0.02 0.01 97 1033.4
20220122115505 44 276 3.0 6.0 0.00 0.02 0.01 97 1033.5
20220122115004 44 277 3.0 7.0 0.00 0.02 0.01 97 1033.4
20220122114505 44 276 3.0 7.0 0.00 0.02 0.01 97 1033.4
20220122114005 44 278 3.0 7.0 0.00 0.02 0.01 97 1033.4
20220122113503 44 277 3.0 8.0 0.00 0.02 0.01 97 1033.5
20220122113003 43 280 4.0 10.0 0.00 0.02 0.01 97 1033.5
20220122112503 44 288 3.0 10.0 0.00 0.02 0.01 97 1033.5
20220122112006 44 295 3.0 9.0 0.00 0.02 0.01 97 1033.5
20220122111505 44 298 3.0 9.0 0.00 0.02 0.01 97 1033.5
20220122111006 44 293 3.0 7.0 0.00 0.02 0.01 97 1033.6
20220122110503 44 293 4.0 9.0 0.00 0.02 0.01 97 1033.6
20220122110004 44 292 4.0 9.0 0.00 0.02 0.01 97 1033.5
20220122105504 44 290 4.0 8.0 0.00 0.02 0.01 97 1033.6
20220122105005 43 297 4.0 8.0 0.00 0.02 0.01 97 1033.6
20220122104503 43 302 4.0 9.0 0.00 0.02 0.01 97 1033.6
20220122104005 44 298 5.0 9.0 0.00 0.02 0.01 97 1033.6
20220122103505 43 292 5.0 10.0 0.00 0.02 0.01 97 1033.5
20220122103003 43 289 5.0 10.0 0.00 0.02 0.01 97 1033.5
20220122102506 43 289 4.0 10.0 0.00 0.02 0.01 97 1033.5
20220122102003 43 295 3.0 8.0 0.00 0.02 0.01 97 1033.6
20220122101506 43 301 4.0 9.0 0.00 0.02 0.01 97 1033.5
20220122101003 43 305 4.0 10.0 0.00 0.02 0.01 97 1033.6
20220122100505 43 309 4.0 10.0 0.00 0.02 0.01 97 1033.5
20220122100005 43 305 4.0 8.0 0.00 0.02 0.01 97 1033.5
20220122095505 43 303 4.0 10.0 0.00 0.02 0.01 97 1033.4
20220122095008 43 302 3.0 7.0 0.00 0.02 0.01 97 1033.5
20220122094506 43 297 3.0 7.0 0.00 0.02 0.01 97 1033.5
20220122094005 43 298 3.0 7.0 0.00 0.02 0.01 97 1033.3
20220122093503 43 299 3.0 8.0 0.00 0.02 0.01 97 1033.3
20220122093005 43 301 4.0 9.0 0.00 0.02 0.01 97 1033.1
20220122092505 43 304 4.0 9.0 0.00 0.02 0.01 97 1033.1
20220122092004 43 304 4.0 10.0 0.00 0.02 0.01 97 1033.2
20220122091504 43 305 4.0 10.0 0.00 0.02 0.01 97 1033.2
20220122091004 43 309 4.0 9.0 0.00 0.02 0.01 97 1033.0
20220122090503 43 306 4.0 9.0 0.00 0.02 0.01 97 1033.0
20220122090004 43 304 4.0 9.0 0.00 0.02 0.01 97 1033.0
20220122085503 43 308 4.0 9.0 0.00 0.02 0.01 97 1033.1
20220122085003 43 306 4.0 7.0 0.00 0.02 0.01 97 1033.1
20220122084508 43 306 4.0 11.0 0.00 0.02 0.01 97 1033.1
20220122084003 43 306 3.0 11.0 0.00 0.02 0.01 97 1033.0
20220122083506 43 300 3.0 6.0 0.00 0.02 0.01 97 1032.9
20220122083005 43 301 3.0 8.0 0.00 0.02 0.01 97 1032.9
20220122082503 43 302 3.0 8.0 0.00 0.02 0.01 97 1032.7
20220122082005 43 306 4.0 10.0 0.00 0.02 0.01 97 1032.7
20220122081505 43 307 4.0 10.0 0.00 0.02 0.01 97 1032.7
20220122081004 43 301 3.0 8.0 0.00 0.02 0.01 97 1032.7
20220122080506 43 300 3.0 8.0 0.00 0.02 0.01 97 1032.7
20220122080005 43 300 3.0 8.0 0.00 0.02 0.01 97 1032.6
20220122075503 43 294 3.0 9.0 0.00 0.02 0.01 97 1032.6
20220122075005 43 294 4.0 9.0 0.00 0.02 0.01 97 1032.5
20220122074505 42 296 4.0 8.0 0.00 0.02 0.01 97 1032.6
20220122074003 42 294 4.0 7.0 0.00 0.02 0.01 97 1032.7
20220122073505 42 297 4.0 10.0 0.00 0.02 0.01 97 1032.7
20220122073004 42 298 3.0 10.0 0.00 0.02 0.01 97 1032.6
20220122072506 42 296 3.0 7.0 0.00 0.02 0.01 97 1032.6
20220122072004 42 295 3.0 7.0 0.00 0.02 0.01 97 1032.6
20220122071503 42 296 3.0 7.0 0.00 0.02 0.01 97 1032.5
20220122071003 42 304 3.0 7.0 0.00 0.02 0.01 97 1032.5
20220122070505 42 303 3.0 9.0 0.00 0.02 0.01 97 1032.5
20220122070005 42 297 3.0 9.0 0.00 0.02 0.01 97 1032.4
20220122065503 42 289 3.0 6.0 0.00 0.02 0.01 96 1032.4